Vohburg — V2OW7 — position and weather

sailwx.info

Track history (hours):
 
Tides and Currents Weather Stations Pressure Air Temp Water Temp Dewpoint Dewpoint Depression Visibility Wind Speed Wind Dir Waves Ship Positions

Vohburg

Last reported at 2014-Jul-24 09:22 UTC. Time now 2014-Jul-24 12:59 UTC.
Position N 57°22' E 008°38'.

Length 140 m; draft 7.4 m.

Type: Ship (hazmat cat A). MMSI: 305773000.

Date/timePositionNaut miles runAvg speedWind from/ knotsBaromVisibWave heightAir tempDewpointWater temp
2014-Jul-24 09:22N 57°22' E 008°38'2117.4
2014-Jul-24 08:10N 57°31' E 009°13'1117.2
2014-Jul-24 07:32N 57°36' E 009°31'1717.3
2014-Jul-24 06:33N 57°43' E 009°60'1717.3
2014-Jul-24 05:33N 57°47' E 010°31'1515.1
2014-Jul-24 04:33N 57°42' E 010°58'1615.9
2014-Jul-24 03:33N 57°31' E 011°19'1717.0
2014-Jul-24 02:33N 57°16' E 011°34'1817.5
2014-Jul-24 01:32N 56°59' E 011°45'1717.8
2014-Jul-24 00:33N 56°43' E 011°55'1817.6
2014-Jul-23 23:33N 56°27' E 012°09'1817.9
2014-Jul-23 22:33N 56°12' E 012°27'1717.3
2014-Jul-23 21:33N 55°57' E 012°43'1616.1
2014-Jul-23 20:33N 55°41' E 012°41'1211.8
2014-Jul-23 19:33N 55°30' E 012°43'1312.5
2014-Jul-23 18:33N 55°17' E 012°46'1717.1
2014-Jul-23 17:33N 55°15' E 013°16'3517.5
2014-Jul-23 15:33N 55°15' E 014°18'1717.3
2014-Jul-23 14:33N 55°27' E 014°40'1817.7
2014-Jul-23 13:33N 55°27' E 015°12'1817.6
2014-Jul-23 12:33N 55°28' E 015°43'1717.5
2014-Jul-23 11:33N 55°29' E 016°13'1817.8
2014-Jul-23 10:33N 55°29' E 016°45'1817.9
2014-Jul-23 09:33N 55°30' E 017°16'1817.7
2014-Jul-23 08:33N 55°32' E 017°47'1817.8
2014-Jul-23 07:33N 55°34' E 018°19'1817.7
2014-Jul-23 06:33N 55°37' E 018°50'1817.7
2014-Jul-23 05:33N 55°39' E 019°21'1817.6
2014-Jul-23 04:33N 55°41' E 019°52'1817.8
2014-Jul-23 03:33N 55°44' E 020°23'1817.7
2014-Jul-23 02:33N 55°45' E 020°54'10 9.8
2014-Jul-23 01:33N 55°39' E 021°09'1 0.5
2014-Jul-23 00:33N 55°39' E 021°10'0 0.0
2014-Jul-22 16:32N 55°39' E 021°10'7 3.4
2014-Jul-22 14:33N 55°44' E 021°02'1010.0
2014-Jul-22 13:33N 55°50' E 020°47'1817.6
2014-Jul-22 12:33N 56°07' E 020°42'1817.8
2014-Jul-22 11:33N 56°25' E 020°41'1817.8
2014-Jul-22 10:33N 56°43' E 020°41'10717.9
2014-Jul-22 04:33N 58°28' E 021°22'8816.3
2014-Jul-21 23:09N 59°37' E 023°08'1117.9
2014-Jul-21 22:33N 59°40' E 023°29'1917.9
2014-Jul-21 21:30N 59°45' E 024°05'3417.3
2014-Jul-21 19:31N 60°01' E 025°06'6 0.5
2014-Jul-21 07:33N 60°06' E 025°11'2110.5
2014-Jul-21 05:32N 59°56' E 025°49'1614.9
2014-Jul-21 04:27N 59°59' E 026°20'23 0.7
2014-Jul-19 21:27N 59°59' E 027°05'1213.3
2014-Jul-19 20:32N 59°59' E 026°41'4713.6
2014-Jul-19 17:04N 59°48' E 025°09'813.2
2014-Jul-19 16:26N 59°47' E 024°52'1112.9
2014-Jul-19 15:33N 59°44' E 024°31'1313.0
2014-Jul-19 14:33N 59°41' E 024°05'1413.6
2014-Jul-19 13:33N 59°36' E 023°41'16913.6
2014-Jul-19 01:05N 57°40' E 019°43'713.3
2014-Jul-19 00:33N 57°34' E 019°35'1613.4
2014-Jul-18 23:22N 57°22' E 019°17'1113.4
2014-Jul-18 22:33N 57°14' E 019°04'1413.3
2014-Jul-18 21:30N 57°02' E 018°48'1313.4
2014-Jul-18 20:34N 56°52' E 018°34'1513.3
2014-Jul-18 19:27N 56°42' E 018°15'6713.8
2014-Jul-18 14:33N 56°00' E 016°40'1313.3
2014-Jul-18 13:33N 55°54' E 016°19'1313.2
2014-Jul-18 12:33N 55°47' E 015°59'1313.2
2014-Jul-18 11:33N 55°41' E 015°38'1313.5
2014-Jul-18 10:33N 55°34' E 015°17'1313.5
2014-Jul-18 09:33N 55°28' E 014°56'1413.8
2014-Jul-18 08:33N 55°20' E 014°36'1414.1
2014-Jul-18 07:33N 55°10' E 014°19'1413.9
2014-Jul-18 06:33N 55°00' E 014°02'1414.2
2014-Jul-18 05:33N 54°56' E 013°39'1414.1
2014-Jul-18 04:33N 54°51' E 013°15'1414.3
2014-Jul-18 03:33N 54°47' E 012°52'1413.6
2014-Jul-18 02:34N 54°40' E 012°32'1413.8
2014-Jul-18 01:34N 54°30' E 012°16'1313.2
2014-Jul-18 00:34N 54°23' E 011°56'1413.7
2014-Jul-17 23:33N 54°16' E 011°36'1414.1
2014-Jul-17 22:33N 54°08' E 011°16'1414.1
2014-Jul-17 21:33N 53°60' E 010°57'0 0.0
2014-Jul-17 03:27N 53°60' E 010°56'1415.6
2014-Jul-17 02:33N 54°10' E 011°13'1616.4
2014-Jul-17 01:33N 54°25' E 011°24'1616.0
2014-Jul-17 00:33N 54°36' E 011°06'168 7.5
2014-Jul-16 02:08N 57°24' E 010°43'813.3
2014-Jul-16 01:33N 57°31' E 010°43'1413.6
2014-Jul-16 00:33N 57°45' E 010°46'1414.5
2014-Jul-15 23:33N 57°45' E 010°19'27014.9
2014-Jul-15 05:29N 54°18' E 005°09'1617.2
2014-Jul-15 04:33N 54°04' E 004°57'1817.6
2014-Jul-15 03:30N 53°45' E 004°53'1617.2
2014-Jul-15 02:33N 53°30' E 004°45'5516.7
2014-Jul-14 23:16N 52°41' E 004°04'1216.3
2014-Jul-14 22:33N 52°31' E 003°54'1616.3
2014-Jul-14 21:34N 52°14' E 003°53'1716.5
2014-Jul-14 20:33N 51°59' E 004°04'1313.0
2014-Jul-14 19:34N 51°54' E 004°23'2 1.4
2014-Jul-14 18:26N 51°53' E 004°25'0 0.0
2014-Jul-14 17:23N 51°53' E 004°25'0 0.0
2014-Jul-14 16:32N 51°53' E 004°25'0 0.0
2014-Jul-14 15:23N 51°53' E 004°25'0 0.0
2014-Jul-14 14:29N 51°53' E 004°25'0 0.0
2014-Jul-14 13:32N 51°53' E 004°25'0 0.0
2014-Jul-14 12:29N 51°53' E 004°25'0 0.0
2014-Jul-14 11:29N 51°53' E 004°25'0 0.0
2014-Jul-14 09:23N 51°53' E 004°25'  
Track history (hours):
 
Tides and Currents Weather Stations Pressure Air Temp Water Temp Dewpoint Dewpoint Depression Visibility Wind Speed Wind Dir Waves Ship Positions

Vohburg

Last reported at 2014-Jul-24 09:22 UTC. Time now 2014-Jul-24 12:59 UTC.
Position N 57°22' E 008°38'.

Length 140 m; draft 7.4 m.

Type: Ship (hazmat cat A). MMSI: 305773000.

Date/timePositionNaut miles runAvg speedWind from/ knotsBaromVisibWave heightAir tempDewpointWater temp
2014-Jul-24 09:22N 57°22' E 008°38'2117.4
2014-Jul-24 08:10N 57°31' E 009°13'1117.2
2014-Jul-24 07:32N 57°36' E 009°31'1717.3
2014-Jul-24 06:33N 57°43' E 009°60'1717.3
2014-Jul-24 05:33N 57°47' E 010°31'1515.1
2014-Jul-24 04:33N 57°42' E 010°58'1615.9
2014-Jul-24 03:33N 57°31' E 011°19'1717.0
2014-Jul-24 02:33N 57°16' E 011°34'1817.5
2014-Jul-24 01:32N 56°59' E 011°45'1717.8
2014-Jul-24 00:33N 56°43' E 011°55'1817.6
2014-Jul-23 23:33N 56°27' E 012°09'1817.9
2014-Jul-23 22:33N 56°12' E 012°27'1717.3
2014-Jul-23 21:33N 55°57' E 012°43'1616.1
2014-Jul-23 20:33N 55°41' E 012°41'1211.8
2014-Jul-23 19:33N 55°30' E 012°43'1312.5
2014-Jul-23 18:33N 55°17' E 012°46'1717.1
2014-Jul-23 17:33N 55°15' E 013°16'3517.5
2014-Jul-23 15:33N 55°15' E 014°18'1717.3
2014-Jul-23 14:33N 55°27' E 014°40'1817.7
2014-Jul-23 13:33N 55°27' E 015°12'1817.6
2014-Jul-23 12:33N 55°28' E 015°43'1717.5
2014-Jul-23 11:33N 55°29' E 016°13'1817.8
2014-Jul-23 10:33N 55°29' E 016°45'1817.9
2014-Jul-23 09:33N 55°30' E 017°16'1817.7
2014-Jul-23 08:33N 55°32' E 017°47'1817.8
2014-Jul-23 07:33N 55°34' E 018°19'1817.7
2014-Jul-23 06:33N 55°37' E 018°50'1817.7
2014-Jul-23 05:33N 55°39' E 019°21'1817.6
2014-Jul-23 04:33N 55°41' E 019°52'1817.8
2014-Jul-23 03:33N 55°44' E 020°23'1817.7
2014-Jul-23 02:33N 55°45' E 020°54'10 9.8
2014-Jul-23 01:33N 55°39' E 021°09'1 0.5
2014-Jul-23 00:33N 55°39' E 021°10'0 0.0
2014-Jul-22 16:32N 55°39' E 021°10'7 3.4
2014-Jul-22 14:33N 55°44' E 021°02'1010.0
2014-Jul-22 13:33N 55°50' E 020°47'1817.6
2014-Jul-22 12:33N 56°07' E 020°42'1817.8
2014-Jul-22 11:33N 56°25' E 020°41'1817.8
2014-Jul-22 10:33N 56°43' E 020°41'10717.9
2014-Jul-22 04:33N 58°28' E 021°22'8816.3
2014-Jul-21 23:09N 59°37' E 023°08'1117.9
2014-Jul-21 22:33N 59°40' E 023°29'1917.9
2014-Jul-21 21:30N 59°45' E 024°05'3417.3
2014-Jul-21 19:31N 60°01' E 025°06'6 0.5
2014-Jul-21 07:33N 60°06' E 025°11'2110.5
2014-Jul-21 05:32N 59°56' E 025°49'1614.9
2014-Jul-21 04:27N 59°59' E 026°20'23 0.7
2014-Jul-19 21:27N 59°59' E 027°05'1213.3
2014-Jul-19 20:32N 59°59' E 026°41'4713.6
2014-Jul-19 17:04N 59°48' E 025°09'813.2
2014-Jul-19 16:26N 59°47' E 024°52'1112.9
2014-Jul-19 15:33N 59°44' E 024°31'1313.0
2014-Jul-19 14:33N 59°41' E 024°05'1413.6
2014-Jul-19 13:33N 59°36' E 023°41'16913.6
2014-Jul-19 01:05N 57°40' E 019°43'713.3
2014-Jul-19 00:33N 57°34' E 019°35'1613.4
2014-Jul-18 23:22N 57°22' E 019°17'1113.4
2014-Jul-18 22:33N 57°14' E 019°04'1413.3
2014-Jul-18 21:30N 57°02' E 018°48'1313.4
2014-Jul-18 20:34N 56°52' E 018°34'1513.3
2014-Jul-18 19:27N 56°42' E 018°15'6713.8
2014-Jul-18 14:33N 56°00' E 016°40'1313.3
2014-Jul-18 13:33N 55°54' E 016°19'1313.2
2014-Jul-18 12:33N 55°47' E 015°59'1313.2
2014-Jul-18 11:33N 55°41' E 015°38'1313.5
2014-Jul-18 10:33N 55°34' E 015°17'1313.5
2014-Jul-18 09:33N 55°28' E 014°56'1413.8
2014-Jul-18 08:33N 55°20' E 014°36'1414.1
2014-Jul-18 07:33N 55°10' E 014°19'1413.9
2014-Jul-18 06:33N 55°00' E 014°02'1414.2
2014-Jul-18 05:33N 54°56' E 013°39'1414.1
2014-Jul-18 04:33N 54°51' E 013°15'1414.3
2014-Jul-18 03:33N 54°47' E 012°52'1413.6
2014-Jul-18 02:34N 54°40' E 012°32'1413.8
2014-Jul-18 01:34N 54°30' E 012°16'1313.2
2014-Jul-18 00:34N 54°23' E 011°56'1413.7
2014-Jul-17 23:33N 54°16' E 011°36'1414.1
2014-Jul-17 22:33N 54°08' E 011°16'1414.1
2014-Jul-17 21:33N 53°60' E 010°57'0 0.0
2014-Jul-17 03:27N 53°60' E 010°56'1415.6
2014-Jul-17 02:33N 54°10' E 011°13'1616.4
2014-Jul-17 01:33N 54°25' E 011°24'1616.0
2014-Jul-17 00:33N 54°36' E 011°06'168 7.5
2014-Jul-16 02:08N 57°24' E 010°43'813.3
2014-Jul-16 01:33N 57°31' E 010°43'1413.6
2014-Jul-16 00:33N 57°45' E 010°46'1414.5
2014-Jul-15 23:33N 57°45' E 010°19'27014.9
2014-Jul-15 05:29N 54°18' E 005°09'1617.2
2014-Jul-15 04:33N 54°04' E 004°57'1817.6
2014-Jul-15 03:30N 53°45' E 004°53'1617.2
2014-Jul-15 02:33N 53°30' E 004°45'5516.7
2014-Jul-14 23:16N 52°41' E 004°04'1216.3
2014-Jul-14 22:33N 52°31' E 003°54'1616.3
2014-Jul-14 21:34N 52°14' E 003°53'1716.5
2014-Jul-14 20:33N 51°59' E 004°04'1313.0
2014-Jul-14 19:34N 51°54' E 004°23'2 1.4
2014-Jul-14 18:26N 51°53' E 004°25'0 0.0
2014-Jul-14 17:23N 51°53' E 004°25'0 0.0
2014-Jul-14 16:32N 51°53' E 004°25'0 0.0
2014-Jul-14 15:23N 51°53' E 004°25'0 0.0
2014-Jul-14 14:29N 51°53' E 004°25'0 0.0
2014-Jul-14 13:32N 51°53' E 004°25'0 0.0
2014-Jul-14 12:29N 51°53' E 004°25'0 0.0
2014-Jul-14 11:29N 51°53' E 004°25'0 0.0
2014-Jul-14 09:23N 51°53' E 004°25'  

Dump ship's entire track history